Location: Chenereilles
(45.4866°N, 4.0790°E)
Time: 04:40:36
(UTC+00:00)

Cosmos 1725 Rocket - Pass Details

Date: 12 November 2019
Orbit: 962 x 990 km, 82.9° (Epoch: 13 December)

Event Time Altitude Azimuth Distance (km) Brightness Sun altitude
Rises 16:33:12 0° 353° (N) 3,715 6.9 -3.4°
Reaches altitude 10° 16:35:46 10° 357° (N) 2,762 6.2 -3.8°
Maximum altitude 16:42:05 66° 79° (E) 1,079 4.1 -4.9°
Drops below altitude 10° 16:48:20 10° 161° (SSE) 2,739 6.4 -5.9°
Sets 16:50:52 0° 165° (SSE) 3,681 7.1 -6.3°
